Location: McDonald Observatory
(30.6717°N, 104.0221°W)
Time: 21:11:04
(UTC-05:00)

Daily predictions for brighter satellites

Satellite Brightness Start Highest point End
(mag) Time Altitude Azimuth Time Altitude Azimuth Time Altitude Azimuth
Cosmos 1371 Rocket 4.4 21:21:45 10° N 21:26:42 45° ENE 21:31:38 10° SE
Cosmos 1400 Rocket 4.2 21:25:11 10° SE 21:28:13 20° E 21:31:13 10° NE
USA 215 3.9 21:23:14 10° ESE 21:29:21 44° NE 21:35:29 10° NNW
BREEZE M DEB (TANK) 4.4 21:21:50 10° NW 21:29:36 34° WSW 21:32:43 10° S
USA 186 2.0 21:30:52 10° SSE 21:34:11 57° ENE 21:37:22 10° N
Spot 2 Rocket 4.5 21:32:04 10° SE 21:36:22 29° ENE 21:40:41 10° NNE
Cosmos 1943 4.3 21:33:57 10° N 21:38:51 29° ENE 21:43:34 10° ESE
Cosmos 2056 Rocket 3.9 21:35:22 10° N 21:40:22 48° ENE 21:45:23 10° SE
Intercosmos 25 2.9 21:38:25 10° S 21:41:34 65° E 21:45:00 10° NNE
Cosmos 158 Rocket 4.3 21:37:50 10° S 21:42:57 48° ESE 21:48:01 10° NNE
Cosmos 1624 Rocket 4.2 21:40:11 10° N 21:45:26 58° ENE 21:50:39 10° SSE
H-2A R/B 3.9 21:43:37 10° E 21:46:26 15° ENE 21:49:16 10° NNE
Cosmos 1626 Rocket 3.5 21:42:38 10° S 21:47:04 78° E 21:51:33 10° N
ERS-2 2.9 21:44:48 11° SE 21:48:00 34° ENE 21:51:22 10° N
Resurs 1-3 3.8 21:44:15 10° SSE 21:48:32 57° ENE 21:52:50 10° N
Cosmos 1470 3.3 21:48:14 10° N 21:51:55 40° E 21:55:10 13° SSE
SL-8 R/B 4.3 21:50:34 10° SSW 21:54:53 33° SE 21:59:13 10° ENE
ARGOS 4.5 21:51:36 12° ESE 21:55:14 23° ENE 21:59:26 10° NNE
NOAA 11 4.3 21:52:16 10° SSE 21:57:34 58° ENE 22:02:53 10° N
OAO 3 Rocket 3.3 21:53:32 10° WSW 21:58:30 81° NNW 22:03:26 10° ENE
Cosmos 1602 Rocket 3.7 21:56:18 10° S 22:00:45 82° W 22:05:14 10° N
Cosmos 1844 Rocket 3.9 21:59:16 14° SE 22:02:16 21° E 22:06:22 10° NE
Meteor 2-5 Rocket 4.3 21:56:50 10° SSE 22:02:18 40° E 22:07:47 10° NNE
Cosmos 1939 Rocket 3.4 21:59:09 10° S 22:03:12 60° W 22:07:14 10° NNW
SL-16 R/B 4.3 21:58:57 10° NW 22:03:25 24° WSW 22:07:52 10° SSW
Aureole 1 4.4 22:02:19 10° NNW 22:05:24 80° WSW 22:08:28 14° SSE
Thor Agena Rocket 4.3 22:01:17 10° N 22:06:16 55° WNW 22:11:10 10° SSW
Resurs 01 Rocket 1.6 22:02:16 10° SSE 22:06:40 89° ENE 22:11:06 10° NNW
Cosmos 1812 Rocket 3.8 22:04:44 10° N 22:08:59 50° E 22:11:57 18° SSE
Cosmos 1758 Rocket 4.1 22:14:39 20° SSE 22:17:13 39° E 22:21:22 10° NNE
Cosmos 1758 4.4 22:16:47 10° NNW 22:20:40 44° W 22:24:32 10° SSW
Cosmos 1733 4.3 22:20:17 10° NNW 22:23:51 42° W 22:27:26 10° SSW
Cosmos 2263 Rocket 4.0 22:27:14 10° SW 22:32:21 34° WNW 22:37:28 10° N
Cosmos 1315 Rocket 2.8 22:32:20 29° SSE 22:34:16 64° E 22:38:17 10° NNE
GENESIS II 4.0 22:31:10 10° SSW 22:35:00 82° ESE 22:38:55 10° NNE
ATLAS 2AS CENTAUR R/B 2.9 22:33:13 10° SSW 22:40:42 67° ESE 22:48:41 10° NE
Palapa 6 Rocket 4.4 22:35:40 10° WSW 22:40:58 38° S 22:43:02 31° SE
Cosmos 1953 3.9 22:37:40 10° NNW 22:41:16 33° W 22:44:41 11° SSW
Meteor 1-16 Rocket 4.1 22:37:43 10° N 22:43:17 76° E 22:46:18 29° SSE
Cosmos 1825 Rocket 3.6 22:40:09 18° S 22:43:28 80° W 22:47:57 10° N
Cosmos 2285 Rocket 3.9 22:38:13 10° S 22:44:32 77° ESE 22:50:51 10° NNE
ERS-1 Rocket 3.5 22:46:49 35° ESE 22:48:09 42° ENE 22:52:54 10° N
Helios 1B rocket 4.3 22:47:32 10° NE 22:49:08 17° ENE 22:49:08 17° ENE
SPOT 5 4.0 22:50:02 26° E 22:50:52 28° ENE 22:55:10 10° NNE
Timation 1 Rocket 4.4 22:48:08 26° S 22:51:23 54° ESE 22:57:10 10° NNE
In-Cosmos 22 4.1 22:47:54 20° S 22:51:48 88° E 22:57:25 10° N
Cosmos 1048 Rocket 4.4 22:47:31 10° SSW 22:52:44 66° WNW 22:58:02 10° N
Iridium 4 Rocket 3.9 22:48:40 17° S 22:53:18 75° W 22:58:48 10° N
Hubble Space Telescope 2.0 22:54:32 10° W 22:57:42 28° SSW 22:57:42 28° SSW
Lacrosse 5 2.9 22:54:38 10° WSW 22:59:29 46° NW 23:04:21 10° NNE
Cosmos 1674 3.4 23:00:48 39° ENE 23:00:48 39° ENE 23:03:40 10° NNE
Cosmos 1238 Rocket 2.8 23:02:35 54° NW 23:02:35 54° NW 23:05:06 10° N
S3M 4.4 23:04:32 39° ESE 23:05:42 43° E 23:11:40 10° NNE
CZ-3 Stage 3 3.9 23:05:13 10° W 23:09:15 88° S 23:32:56 10° E
MetOp-B 4.1 23:07:41 42° S 23:09:32 80° WSW 23:14:55 10° NNW
USA 215 4.0 23:09:21 28° S 23:12:15 42° SW 23:18:24 10° WNW
BREEZE-M R/B 4.3 23:12:30 10° WNW 23:13:37 20° WNW 23:13:37 20° WNW
Nadezhda 2 Rocket 4.4 23:10:57 10° N 23:17:13 89° WSW 23:19:18 45° S
Cosmos 1452 Rocket 4.2 23:12:58 10° NNW 23:18:04 49° WSW 23:19:48 35° SSW
Cosmos 2278 Rocket 3.5 23:20:26 25° ENE 23:20:26 25° ENE 23:23:35 10° NE
Cosmos 1420 Rocket 4.5 23:16:23 10° NNW 23:21:24 52° WSW 23:22:45 41° SSW
ATLAS 3B CENTAUR R/B 3.7 23:04:50 10° SW 23:22:01 45° SSE 23:24:05 40° SE
Cosmos 1346 Rocket 3.1 23:18:45 10° N 23:22:09 61° NNE 23:22:09 61° NNE
SPOT 1/Viking Rocket 3.5 23:24:32 60° E 23:24:48 61° ENE 23:29:52 10° N
H-2A R/B 2.6 23:23:42 40° SSW 23:25:16 54° W 23:30:29 10° NNW
COSMOS 2406 4.2 23:25:15 10° N 23:30:20 31° ENE 23:30:39 31° ENE
Cosmos 1553 Rocket 3.8 23:29:18 55° S 23:30:44 86° E 23:36:49 10° N
Aurora 2 Rocket 4.2 23:24:45 10° WSW 23:32:01 55° SSE 23:34:17 45° SE
Cosmos 1726 3.8 23:30:59 10° N 23:32:56 27° NNE 23:32:56 27° NNE
ARGOS 4.4 23:33:07 26° SW 23:35:13 35° W 23:40:08 10° NNW
Cosmos 1844 4.0 23:36:34 31° SW 23:39:14 63° WNW 23:44:56 10° NNE
Cosmos 1110 Rocket 4.3 23:34:37 10° N 23:39:18 53° NE 23:39:18 53° NE
OAO 3 Rocket 3.9 23:37:32 10° WNW 23:42:20 50° N 23:43:16 44° NE
Cosmos-2242 3.7 23:38:43 10° NNW 23:42:44 50° W 23:42:44 50° W
Landsat 7 4.0 23:46:10 68° N 23:46:10 68° N 23:50:21 10° N
Cosmos 1844 Rocket 3.9 23:40:46 11° SW 23:45:47 40° WNW 23:51:05 10° N
Meteor 2-10 4.2 23:42:08 10° N 23:47:12 65° ENE 23:47:12 65° ENE
